Jackson Hawkins Field, MS

7:45 AM CST on February 22, 2018 (GMT -0600)
Hawkins

Weather History for KHKS - October, 2013

Change the Weather History Date:

Tuesday, October 8, 2013

  Actual Average (KJAN) Record (KJAN)
Temperature  
Mean Temperature 64 °F -  
Max Temperature 77 °F 78 °F 96 °F (1928)
Min Temperature 50 °F 53 °F 35 °F (1987)
Degree Days  
Heating Degree Days 2    
Growing Degree Days 14 (Base 50)    
Moisture  
Dew Point 50 °F    
Average Humidity 66    
Maximum Humidity 93    
Minimum Humidity 37    
Precipitation  
Precipitation 0.00 in - - ()
Sea Level Pressure  
Sea Level Pressure 30.04 in    
Wind  
Wind Speed 3 mph (NNW)    
Max Wind Speed 9 mph    
Max Gust Speed -    
Visibility 10 miles    
Events      
Averages and records for this station are not official NWS values.
T = Trace of Precipitation, MM = Missing Value Source: NWS Daily Summary

Daily Weather History Graph

Daily Weather History Graph

Search for Another Location

Airport or City:

Trip Planner

Search our weather history database for the weather conditions in past years. The results will help you decide how hot, cold, wet, or windy it might be!

Date:

Astronomy

Oct. 08, 2013 Rise Set
Actual Time 6:59 AM CDT 6:36 PM CDT
Civil Twilight 6:35 AM CDT 7:00 PM CDT
Nautical Twilight 6:06 AM CDT 7:29 PM CDT
Astronomical Twilight 5:38 AM CDT 7:57 PM CDT
Moon 10:41 AM CDT (10/8) 9:25 PM CDT (10/8)
Length of Visible Light 12h 25m
Length of Day
11h 36m
Waxing Crescent, 16% of the Moon is Illuminated
Oct 8
Waxing Crescent
Oct 11
First Quarter
Oct 18
Full
Oct 26
Last Quarter
Nov 3
New

Hourly Weather History & Observations

Time (CDT) Temp. Dew Point Humidity Pressure Visibility Wind Dir Wind Speed Gust Speed Precip Events Conditions
12:53 AM 57.9 °F 51.1 °F 78% 30.05 in 10.0 mi Calm Calm - N/A   Clear
1:53 AM 55.0 °F 51.1 °F 86% 30.05 in 10.0 mi Calm Calm - N/A   Clear
2:53 AM 54.0 °F 51.1 °F 90% 30.05 in 10.0 mi NW 3.5 mph - N/A   Clear
3:53 AM 53.1 °F 50.0 °F 89% 30.05 in 10.0 mi NW 3.5 mph - N/A   Clear
4:53 AM 52.0 °F 48.9 °F 89% 30.05 in 10.0 mi Calm Calm - N/A   Clear
5:53 AM 52.0 °F 48.9 °F 89% 30.06 in 10.0 mi Calm Calm - N/A   Clear
6:53 AM 50.0 °F 48.0 °F 93% 30.06 in 10.0 mi NNW 3.5 mph - N/A   Clear
7:53 AM 52.0 °F 48.9 °F 89% 30.07 in 10.0 mi NW 3.5 mph - N/A   Clear
8:53 AM 60.1 °F 50.0 °F 69% 30.06 in 10.0 mi North 5.8 mph - N/A   Clear
9:53 AM 64.0 °F 48.9 °F 58% 30.07 in 10.0 mi NE 9.2 mph - N/A   Clear
10:53 AM 66.9 °F 48.0 °F 51% 30.07 in 10.0 mi NNE 5.8 mph - N/A   Clear
11:53 AM 71.1 °F 48.0 °F 44% 30.06 in 10.0 mi North 6.9 mph - N/A   Partly Cloudy
12:53 PM 73.0 °F 48.0 °F 41% 30.05 in 10.0 mi Variable 5.8 mph - N/A   Clear
1:53 PM 73.9 °F 48.0 °F 40% 30.02 in 10.0 mi NW 5.8 mph - N/A   Clear
2:53 PM 75.9 °F 48.0 °F 37% 30.01 in 10.0 mi NNW 4.6 mph - N/A   Clear
3:53 PM 77.0 °F 48.9 °F 37% 30.00 in 10.0 mi Variable 5.8 mph - N/A   Clear
4:53 PM 77.0 °F 48.9 °F 37% 30.00 in 10.0 mi Variable 3.5 mph - N/A   Clear
5:53 PM 75.0 °F 50.0 °F 41% 30.00 in 10.0 mi North 5.8 mph - N/A   Clear
6:53 PM 70.0 °F 51.1 °F 51% 30.01 in 10.0 mi NNW 3.5 mph - N/A   Clear
7:53 PM 66.0 °F 53.1 °F 63% 30.03 in 10.0 mi Calm Calm - N/A   Clear
8:53 PM 62.1 °F 54.0 °F 75% 30.04 in 10.0 mi Calm Calm - N/A   Clear
9:53 PM 60.1 °F 53.1 °F 78% 30.04 in 10.0 mi NW 3.5 mph - N/A   Clear
10:53 PM 59.0 °F 54.0 °F 83% 30.04 in 10.0 mi Calm Calm - N/A   Clear
11:53 PM 57.9 °F 53.1 °F 84% 30.04 in 10.0 mi Calm Calm - N/A   Clear